Regional Weather Roundup
Issued by NWS Kansas City/Pleasant Hill, MO

Home | Current Version | Previous Version | Text Only | Print | Product List | Glossary On
Versions: 1 2 3 4 5 6 7 8 9 10 11 12 13 14 15 16 17 18 19 20 21 22 23 24 25 26 27 28 29 30 31 32 33 34 35 36 37 38 39 40 41 42 43 44 45 46 47 48 49 50
383
ASUS43 KEAX 241210
RWREAX

WEATHER ROUNDUP FOR EASTERN KANSAS AND NORTHWEST MISSOURI
NATIONAL WEATHER SERVICE KANSAS CITY/PLEASANT HILL MO
700 AM CDT FRI MAR 24 2017

KSZ040-057-103>105-MOZ028-029-037-043-241300-
...KANSAS CITY METROPOLITAN AREA...

CITY           SKY/WX    TMP DP  RH WIND       PRES   REMARKS
K.C. INTL      CLOUDY    68  44  42 S22G30    29.78R
6HR MIN TEMP:  65; 6HR MAX TEMP:  69;

K.C. DOWNTOWN  CLOUDY    70  43  37 S18G25    29.78R
6HR MIN TEMP:  67; 6HR MAX TEMP:  71;

LEES SUMMIT    CLOUDY    65  46  50 S14       29.80S
6HR MIN TEMP:  64; 6HR MAX TEMP:  69;

OLATHE - IXD   PTCLDY    66  45  46 S17G23    29.79R
6HR MIN TEMP:  66; 6HR MAX TEMP:  68;

OLATHE - OJC   PTCLDY    66  45  46 S17G33    29.79R
6HR MIN TEMP:  65; 6HR MAX TEMP:  67;

LAWRENCE       CLOUDY    68  45  43 S17G26    29.75S

$$

MOZ001>008-011>017-020>025-030>033-038>040-044>046-053-054-241300-
...NORTHERN AND CENTRAL MISSOURI...

CITY           SKY/WX    TMP DP  RH WIND       PRES   REMARKS
ST. JOSEPH     CLOUDY    68  49  50 S12       29.78R
6HR MIN TEMP:  62; 6HR MAX TEMP:  69;

MOSBY          CLOUDY    64  46  52 SE7       29.80S
WARRENSBURG    CLEAR     63  45  51 S8        29.83R
WHITEMAN AFB   PTCLDY    58  47  66 SE8       29.83R
6HR MIN TEMP:  58; 6HR MAX TEMP:  68;

CLINTON        CLEAR     66  45  45 S15G21    29.85S
SEDALIA        CLEAR     65  47  52 S16       29.86F
6HR MIN TEMP:  63; 6HR MAX TEMP:  69;

WARSAW         NOT AVBL
CHILLICOTHE      N/A     61  48  62 S9        29.83S
6HR MIN TEMP:  53; 6HR MAX TEMP:  67;

KIRKSVILLE     CLEAR     61  50  67 S14       29.86S
6HR MIN TEMP:  50; 6HR MAX TEMP:  64;


$$

MOZ041-047>049-056>058-063>065-088>090-097-241300-
...EASTERN AND SOUTHERN MISSOURI...

CITY           SKY/WX    TMP DP  RH WIND       PRES   REMARKS
ST. LOUIS INTL PTCLDY    57  49  74 CALM      30.02R
6HR MIN TEMP:  54; 6HR MAX TEMP:  63;

SPIRIT OF STL  PTCLDY    64  51  62 SW6       29.99R
COLUMBIA       CLEAR     63  48  58 S13       29.92S
JEFFERSON CITY CLEAR     68  47  46 SE12      29.92F
ROLLA          CLEAR     62  49  62 S13       29.96R
OSAGE BEACH    CLEAR    N/A N/A N/A S12       29.93F
SPRINGFIELD    CLOUDY    63  45  51 S14       29.90F
BRANSON        MOCLDY    66  48  52 S10G17    29.98S
JOPLIN         CLEAR     67  38  34 S20G30    29.84S
WEST PLAINS    PTCLDY    61  50  67 S7        30.04R

$$

IAZ060-094-KSZ022-034>040-054-083-096-NEZ052-066-093-241300-
...KANSAS...SOUTHEAST NEBRASKA AND IOWA...

CITY           SKY/WX    TMP DP  RH WIND       PRES   REMARKS
TOPEKA         CLOUDY    68  46  45 S13G24    29.73R
6HR MIN TEMP:  67; 6HR MAX TEMP:  70;

MANHATTAN      CLOUDY    68  42  38 S10G21    29.70R
EMPORIA        CLOUDY    67  45  45 S24G32    29.72S
CHANUTE        CLOUDY    64  44  48 S16       29.80S
WICHITA        MOCLDY    65  45  48 S20G29    29.70R
OMAHA          LGT RAIN  52  49  89 NE13      29.73F FOG
LINCOLN        CLOUDY    55  54  96 NE8       29.75R
FALLS CITY     CLOUDY    66  48  52 S8        29.75R
LAMONI         PTCLDY    58  47  66 S8        29.79R
DES MOINES     MOCLDY    58  46  64 W3        29.77R

$$





USA.gov is the U.S. government's official web portal to all federal, state and local government web resources and services.